TimeCDT,TemperatureF,Dew PointF,Humidity,Sea Level PressureIn,VisibilityMPH,Wind Direction,Wind SpeedMPH,Gust SpeedMPH,PrecipitationIn,Events,Conditions,WindDirDegrees,DateUTC
12:53 AM,46.9,28.9,50,30.04,10.0,South,5.8,-,N/A,,Clear,180,2012-10-02 05:53:00
1:53 AM,43.0,28.0,56,30.02,10.0,South,5.8,-,N/A,,Clear,180,2012-10-02 06:53:00
3:53 AM,48.0,30.0,50,29.98,10.0,South,8.1,-,N/A,,Clear,190,2012-10-02 08:53:00
4:53 AM,46.9,30.0,52,29.97,10.0,South,11.5,-,N/A,,Clear,180,2012-10-02 09:53:00
5:53 AM,46.0,30.0,54,29.96,10.0,South,9.2,-,N/A,,Clear,190,2012-10-02 10:53:00
6:53 AM,48.0,30.0,50,29.94,10.0,SSW,15.0,-,N/A,,Clear,200,2012-10-02 11:53:00
7:53 AM,50.0,30.9,48,29.92,10.0,SSW,20.7,26.5,N/A,,Clear,200,2012-10-02 12:53:00
8:53 AM,53.1,32.0,45,29.91,10.0,South,16.1,26.5,N/A,,Clear,190,2012-10-02 13:53:00
9:53 AM,59.0,33.1,38,29.88,10.0,SSW,18.4,25.3,N/A,,Clear,200,2012-10-02 14:53:00
10:53 AM,66.0,33.1,29,29.84,10.0,South,23.0,29.9,N/A,,Clear,190,2012-10-02 15:53:00
11:53 AM,71.1,33.1,25,29.81,10.0,South,25.3,29.9,N/A,,Clear,190,2012-10-02 16:53:00
12:53 PM,75.9,34.0,22,29.78,10.0,South,19.6,27.6,N/A,,Clear,190,2012-10-02 17:53:00
1:53 PM,80.1,34.0,19,29.75,10.0,South,20.7,27.6,N/A,,Clear,190,2012-10-02 18:53:00
2:53 PM,82.9,34.0,17,29.72,10.0,SSW,19.6,26.5,N/A,,Clear,210,2012-10-02 19:53:00
3:53 PM,84.9,35.1,17,29.69,10.0,SSW,13.8,24.2,N/A,,Clear,200,2012-10-02 20:53:00
4:53 PM,86.0,35.1,16,29.68,10.0,South,15.0,-,N/A,,Clear,190,2012-10-02 21:53:00
5:53 PM,84.9,34.0,16,29.68,10.0,South,15.0,20.7,N/A,,Clear,180,2012-10-02 22:53:00
6:53 PM,80.1,34.0,19,29.69,10.0,South,11.5,-,N/A,,Clear,170,2012-10-02 23:53:00
7:53 PM,73.9,34.0,23,29.70,10.0,South,15.0,-,N/A,,Clear,170,2012-10-03 00:53:00
9:53 PM,69.1,34.0,27,29.71,10.0,South,12.7,-,N/A,,Clear,170,2012-10-03 02:53:00
10:53 PM,66.0,34.0,30,29.71,10.0,South,12.7,-,N/A,,Clear,170,2012-10-03 03:53:00
11:53 PM,66.9,33.1,28,29.71,10.0,South,13.8,-,N/A,,Clear,190,2012-10-03 04:53:00